CW9203 Weather Reports


Display with metric or nautical units.
time (UTC)temp
F
wind
direction
speed
MPH
gust
MPH
rain 1hr
in
rain 24hr
in
rain mn
in
humidity
%
barometer
mb
20260508202807 60 266 0.0 0.0 0.00 0.35 0.13 4 1008.4
20260508202306 60 283 0.0 0.0 0.00 0.35 0.13 4 1008.4
20260508200305 58 283 0.0 0.0 0.00 0.35 0.13 4 1008.3
20260508195806 58 283 0.0 0.0 0.00 0.35 0.13 4 1008.3
20260508195307 58 283 0.0 0.0 0.01 0.35 0.13 4 1008.2
20260508193807 57 283 0.0 0.0 0.01 0.35 0.13 4 1008.1
20260508191305 57 284 0.0 1.0 0.01 0.35 0.13 4 1008.1
20260508190807 57 285 0.0 1.0 0.02 0.35 0.13 4 1008.0
20260508184306 58 286 0.0 1.0 0.02 0.34 0.13 4 1007.8
20260508183304 58 286 0.0 1.0 0.02 0.34 0.13 4 1007.8
20260508182307 59 279 3.0 8.0 0.02 0.34 0.13 4 1007.8
20260508181805 59 282 1.0 7.0 0.02 0.34 0.13 4 1007.7
20260508181305 59 256 5.0 12.0 0.02 0.34 0.13 4 1007.8
20260508180807 58 266 2.0 3.0 0.01 0.33 0.12 4 1007.8
20260508180305 58 269 0.0 0.0 0.00 0.32 0.11 4 1007.7
20260508174805 58 289 0.0 0.0 0.00 0.32 0.11 4 1007.7
20260508174307 58 290 0.0 0.0 0.00 0.32 0.11 4 1007.7
20260508173807 58 296 0.0 1.0 0.00 0.32 0.11 4 1007.7
20260508173307 58 282 0.0 1.0 0.00 0.32 0.11 4 1007.7
20260508172806 58 277 0.0 1.0 0.00 0.32 0.11 4 1007.7
20260508171804 58 268 0.0 1.0 0.00 0.32 0.11 4 1007.7
20260508171307 58 268 1.0 3.0 0.00 0.32 0.11 4 1007.7
20260508163807 58 273 1.0 1.0 0.00 0.32 0.11 4 1007.7
20260508163307 58 272 1.0 1.0 0.00 0.32 0.11 4 1007.7
20260508162806 58 272 1.0 1.0 0.00 0.32 0.11 4 1007.7
20260508161305 57 273 1.0 2.0 0.00 0.32 0.11 4 1007.8
20260508160807 57 271 1.0 3.0 0.00 0.32 0.11 4 1007.8
20260508155306 57 266 0.0 1.0 0.00 0.32 0.11 4 1007.8
20260508154806 57 266 0.0 1.0 0.00 0.32 0.11 4 1007.8
20260508153805 57 266 0.0 1.0 0.00 0.32 0.11 4 1007.9
20260508153305 57 266 0.0 0.0 0.00 0.32 0.11 4 1008.0
20260508151805 58 266 0.0 2.0 0.00 0.32 0.11 4 1008.1
20260508145807 58 269 0.0 2.0 0.00 0.32 0.11 4 1008.3
20260508143805 58 264 1.0 3.0 0.00 0.32 0.11 4 1008.3
20260508143307 58 270 1.0 2.0 0.00 0.32 0.11 4 1008.3
20260508142807 58 270 1.0 2.0 0.00 0.32 0.11 4 1008.3
20260508142307 58 269 1.0 2.0 0.00 0.32 0.11 4 1008.4
20260508141306 58 285 0.0 2.0 0.00 0.32 0.11 4 1008.4
20260508140305 58 274 1.0 2.0 0.00 0.32 0.11 4 1008.6
20260508134805 58 285 0.0 2.0 0.02 0.32 0.11 4 1008.7
20260508132307 58 273 1.0 3.0 0.09 0.32 0.11 4 1008.6
20260508131804 58 272 1.0 3.0 0.10 0.32 0.11 4 1008.5
20260508131305 58 274 2.0 3.0 0.10 0.32 0.11 4 1008.6
20260508130305 58 277 1.0 3.0 0.11 0.32 0.11 4 1008.5
20260508125804 58 275 2.0 6.0 0.11 0.32 0.11 4 1008.5
20260508124806 58 264 1.0 3.0 0.09 0.30 0.09 4 1008.6
20260508124306 58 259 2.0 3.0 0.09 0.30 0.09 4 1008.6
20260508123805 59 278 2.0 3.0 0.09 0.30 0.09 4 1008.8
20260508123305 59 267 2.0 3.0 0.09 0.30 0.09 4 1008.9
20260508122307 59 262 5.0 10.0 0.06 0.24 0.02 4 1009.3
20260508120824 59 262 2.0 8.0 0.09 0.21 0.00 4 1009.2
20260508120306 60 271 3.0 15.0 0.09 0.21 0.00 4 1009.2
20260508115306 60 280 4.0 10.0 0.09 0.21 0.21 4 1009.4
20260508114305 60 274 5.0 13.0 0.09 0.21 0.21 4 1009.1
20260508113305 61 260 9.0 17.0 0.09 0.21 0.21 4 1009.1
20260508112805 62 250 7.0 16.0 0.09 0.20 0.20 4 1008.9
20260508110805 64 320 2.0 7.0 0.00 0.12 0.12 4 1008.3
20260508110307 64 328 2.0 12.0 0.00 0.12 0.12 4 1008.4
20260508105805 64 331 2.0 7.0 0.00 0.12 0.12 4 1008.5
20260508104305 64 337 2.0 9.0 0.00 0.12 0.12 4 1008.7
20260508100306 64 315 1.0 3.0 0.05 0.12 0.12 4 1009.2
20260508095804 64 336 1.0 8.0 0.05 0.12 0.12 4 1009.3
20260508095306 64 329 2.0 6.0 0.05 0.12 0.12 4 1009.5
20260508094805 64 324 1.0 5.0 0.05 0.12 0.12 4 1009.6
20260508093305 64 333 2.0 6.0 0.04 0.11 0.11 4 1009.6
20260508091807 64 331 1.0 6.0 0.02 0.09 0.09 4 1010.0
20260508091304 63 331 1.0 3.0 0.02 0.09 0.09 4 1010.0
20260508090805 63 344 1.0 6.0 0.02 0.09 0.09 4 1010.1
20260508090307 63 341 2.0 5.0 0.01 0.07 0.07 4 1010.0
20260508085806 63 324 1.0 3.0 0.01 0.07 0.07 4 1010.2
20260508084305 63 328 1.0 3.0 0.02 0.07 0.07 4 1010.3
20260508083806 64 319 2.0 3.0 0.03 0.07 0.07 4 1010.4
20260508083307 63 356 2.0 7.0 0.04 0.07 0.07 4 1010.3
20260508082306 64 329 1.0 6.0 0.05 0.07 0.07 4 1010.3
20260508081305 64 338 2.0 5.0 0.05 0.07 0.07 4 1010.2
20260508080804 64 315 2.0 6.0 0.05 0.07 0.07 4 1010.3
20260508080304 64 334 3.0 10.0 0.04 0.06 0.06 4 1010.3
20260508075308 64 328 2.0 6.0 0.04 0.06 0.06 4 1010.5
20260508074305 64 345 3.0 9.0 0.02 0.05 0.05 4 1010.5
20260508073805 64 336 4.0 9.0 0.02 0.04 0.04 4 1010.5
20260508073306 64 337 2.0 6.0 0.02 0.03 0.03 4 1010.9
20260508072805 64 353 2.0 10.0 0.02 0.03 0.03 4 1011.1
20260508072308 64 330 3.0 13.0 0.01 0.02 0.02 4 1010.9
20260508071307 64 345 2.0 3.0 0.01 0.02 0.02 4 1010.9
20260508070305 64 346 3.0 7.0 0.02 0.02 0.02 4 1011.1
20260508065307 64 333 3.0 7.0 0.02 0.02 0.02 4 1011.0
20260508064307 64 336 2.0 8.0 0.02 0.02 0.02 4 1010.8
20260508063305 65 326 2.0 7.0 0.02 0.02 0.02 4 1010.7
20260508062805 65 344 3.0 21.0 0.02 0.02 0.02 4 1010.7
20260508062306 65 347 3.0 8.0 0.02 0.02 0.02 4 1010.9
20260508061806 65 340 1.0 5.0 0.02 0.02 0.02 4 1010.9
20260508061307 65 339 3.0 10.0 0.02 0.02 0.02 4 1010.9
20260508060304 65 327 2.0 6.0 0.01 0.01 0.01 4 1011.0
20260508053304 66 329 2.0 7.0 0.00 0.00 0.00 4 1011.7
20260508052805 66 346 3.0 10.0 0.00 0.00 0.00 4 1011.7
20260508052307 66 357 2.0 9.0 0.00 0.00 0.00 4 1011.9
20260508051305 66 337 2.0 10.0 0.00 0.00 0.00 4 1011.9
20260508050804 66 348 3.0 8.0 0.00 0.00 0.00 4 1012.1
20260508041804 67 343 2.0 10.0 0.00 0.00 0.00 4 1013.1
20260508040803 67 351 3.0 9.0 0.00 0.00 0.00 4 1013.1
20260508040303 67 344 4.0 13.0 0.00 0.00 0.00 4 1013.2
20260508035306 67 338 3.0 10.0 0.00 0.00 0.00 4 1013.3
20260508034304 67 342 3.0 17.0 0.00 0.00 0.00 4 1013.3
20260508033304 67 315 3.0 7.0 0.00 0.00 0.00 4 1013.2
20260508032306 67 331 2.0 12.0 0.00 0.00 0.00 4 1013.0
20260508030804 67 338 3.0 13.0 0.00 0.00 0.00 4 1013.3
20260508030304 67 330 2.0 8.0 0.00 0.00 0.00 4 1013.2
20260508023304 68 12 3.0 12.0 0.00 0.00 0.00 4 1013.4
20260508022803 68 13 3.0 12.0 0.00 0.00 0.00 4 1013.5
20260508020804 68 325 3.0 13.0 0.00 0.00 0.00 4 1013.9
20260508020303 69 348 4.0 10.0 0.00 0.00 0.00 4 1013.9
20260508015804 68 336 3.0 9.0 0.00 0.00 0.00 4 1014.1
20260508015306 68 326 5.0 16.0 0.00 0.00 0.00 4 1014.0
20260508014304 68 344 3.0 13.0 0.00 0.00 0.00 4 1014.2
20260508013303 67 313 3.0 15.0 0.00 0.00 0.00 4 1014.4
20260508012803 67 346 3.0 10.0 0.00 0.00 0.00 4 1014.4
20260508005803 66 351 4.0 12.0 0.00 0.00 0.00 4 1015.0
20260508005305 66 330 3.0 9.0 0.00 0.00 0.00 4 1015.1
20260508003804 66 327 3.0 14.0 0.00 0.00 0.00 4 1015.2
20260508003303 66 357 4.0 10.0 0.00 0.00 0.00 4 1015.2
20260508002803 66 322 2.0 17.0 0.00 0.00 0.00 4 1015.5
20260508002306 67 9 3.0 9.0 0.00 0.00 0.00 4 1015.5
20260508001804 67 0 4.0 12.0 0.00 0.00 0.00 4 1015.6
20260508000803 67 344 3.0 12.0 0.00 0.00 0.00 4 1016.2
20260507235804 67 324 3.0 9.0 0.00 0.00 0.00 4 1015.9
20260507235306 67 354 2.0 7.0 0.00 0.00 0.00 4 1016.2
20260507234803 67 321 2.0 6.0 0.00 0.00 0.00 4 1016.4
20260507233803 67 351 4.0 20.0 0.00 0.00 0.00 4 1016.5
20260507232803 67 8 2.0 9.0 0.00 0.00 0.00 4 1016.5
20260507232306 67 333 2.0 8.0 0.00 0.00 0.00 4 1016.7
20260507230803 67 324 2.0 9.0 0.00 0.00 0.00 4 1017.1
20260507230303 67 331 2.0 9.0 0.00 0.00 0.00 4 1017.2
20260507225306 66 350 3.0 7.0 0.00 0.00 0.00 4 1017.2
20260507224804 66 26 2.0 7.0 0.00 0.00 0.00 4 1017.1
20260507224303 66 323 2.0 7.0 0.00 0.00 0.00 4 1017.1
20260507223304 67 331 3.0 12.0 0.00 0.00 0.00 4 1017.4
20260507220804 67 325 3.0 12.0 0.00 0.00 0.00 4 1017.8
20260507220304 67 338 3.0 7.0 0.00 0.00 0.00 4 1017.9
20260507211803 65 348 5.0 14.0 0.00 0.00 0.00 4 1017.9
20260507211303 65 354 6.0 14.0 0.00 0.00 0.00 4 1017.9
20260507210803 65 7 2.0 12.0 0.00 0.00 0.00 4 1018.0
20260507210304 65 17 2.0 8.0 0.00 0.00 0.00 4 1018.0
20260507204805 65 332 2.0 9.0 0.00 0.00 0.00 4 1018.1
20260507204305 65 353 3.0 8.0 0.00 0.00 0.00 4 1018.2